Regional Weather Roundup
Issued by NWS New Orleans/Baton Rouge, LA

Home | Current Version | Previous Version | Graphics & Text | Print | Product List | Glossary On
Versions: 1 2 3 4 5 6 7 8 9 10 11 12 13 14 15 16 17 18 19 20 21 22 23 24 25 26 27 28 29 30 31 32 33 34 35 36 37 38 39 40 41 42 43 44 45 46 47 48 49 50
126
ASUS44 KLIX 231205
RWRLIX
NEW ORLEANS REGIONAL WEATHER ROUNDUP
NATIONAL WEATHER SERVICE NEW ORLEANS LA
700 AM CDT WED JUL 23 2014

NOTE: "FAIR" INDICATES FEW OR NO CLOUDS BELOW 12,000 FEET WITH NO
      SIGNIFICANT WEATHER AND/OR OBSTRUCTIONS TO VISIBILITY.
      SKY/WX - SKY CONDITION AND SIGNIFICANT WEATHER.
      TMP - AIR TEMPERATURE.     DP    - DEWPOINT TEMPERATURE.
      RH  - RELATIVE HUMIDITY.   PRES  - PRESSURE.
      HI  - HEAT INDEX.          WCI   - WIND CHILL INDEX.

*  THESE STATIONS ARE NOT NWS OR FAA STATIONS AND ARE NOT UNDER
   NWS QUALITY CONTROL.

LAZ038-040-048-061>063-065>067-069-231300-
SOUTHEAST LOUISIANA

CITY           SKY/WX    TMP DP  RH WIND       PRES   REMARKS
N.O. AUDUBON     N/A     79  73  82 MISG        N/A
6HR MIN TEMP:  79; 6HR MAX TEMP:  81;

N.O. INTL ARPT MOCLDY    77  74  90 CALM      30.03S
6HR MIN TEMP:  76; 6HR MAX TEMP:  79;

N.O. LAKEFRONT CLEAR     78  74  87 E6        30.03S
6HR MIN TEMP:  77; 6HR MAX TEMP:  80;

N.O. DOWNTOWN*   N/A     79  70  73 CALM      30.03S
6HR MIN TEMP:  77; 6HR MAX TEMP:  81;

SLIDELL        CLEAR     71  68  90 N3        30.04R
6HR MIN TEMP:  70; 6HR MAX TEMP:  73;

BATON ROUGE    CLEAR     71  68  90 NE3       30.05R
6HR MIN TEMP:  70; 6HR MAX TEMP:  73;

BOOTHVILLE     MOCLDY    80  76  87 S3        30.03S
6HR MIN TEMP:  76; 6HR MAX TEMP:  80;

BELLE CHASSE   MOCLDY    76  72  87 CALM      30.02S
6HR MIN TEMP:  74; 6HR MAX TEMP:  77;

BOGALUSA*        N/A     69  67  90 CALM      30.08R FOG
6HR MIN TEMP:  69; 6HR MAX TEMP:  71; 6HR PCP:  0.01;

GALLIANO*      NOT AVBL
NEW ROADS*       N/A     71  70  96 MISG      30.05S
6HR MIN TEMP:  70; 6HR MAX TEMP:  73; 6HR PCP:  0.01;

GONZALES*        N/A     72  72 100 CALM      30.04S
6HR MIN TEMP:  72; 6HR MAX TEMP:  76;

HAMMOND*       CLEAR     70  68  94 CALM      30.06S
HOUMA*         PTCLDY    73  70  88 CALM      30.03R
PORT FOURCHON* MOSUNNY   79  75  89 VRB3      30.04S

$$

MSZ070-080>082-231300-
SOUTHERN MISSISSIPPI

CITY           SKY/WX    TMP DP  RH WIND       PRES   REMARKS
MCCOMB         MOCLDY    68  67  96 N5        30.08R FOG
6HR MIN TEMP:  67; 6HR MAX TEMP:  70;

GULFPORT       CLEAR     73  68  84 NE3       30.04R
6HR MIN TEMP:  72; 6HR MAX TEMP:  74;

BILOXI         CLEAR     71  70  96 NE6       30.06R
6HR MIN TEMP:  70; 6HR MAX TEMP:  72;

PASCAGOULA     CLEAR     71  69  93 N3        30.06R
6HR MIN TEMP:  70; 6HR MAX TEMP:  72;

STENNIS ARPT*  CLEAR    N/A N/A N/A CALM      30.04

$$

COASTAL OBSERVATIONS
LAKE AND NEARSHORE STATIONS

STATION/POSITION TIME  TEMP    WIND        PRES    WAVE
                       AIR SEA DIR/SP/G            HT/PER
                 (UTC) (F)     (DEG/KT/KT) (MB)    (FT/S)
PASCAGOULA       1200   74      20/  4/  5 1017.0
WAVELAND YACHT   1200   73      50/  7/  8 1016.6
GRAND ISLE       1200   80 85  340/  2/  3 1017.3
SOUTHWEST PASS   1200   81 84  170/  4/  6 1017.0
NEW CANAL        1200   77 81   CALM  /  1 1017.3
SHELL BEACH      1200   81 81   70/  3/  5 1016.7

OFFSHORE STATIONS

STATION/POSITION TIME  TEMP    WIND        PRES    WAVE
                       AIR SEA DIR/SP/G            HT/PER
                 (UTC) (F)     (DEG/KT/KT) (MB)    (FT/S)
64 S DAUPHIN ISL 1146   80 84  170/ 14/ 17 1017.2

$$




USA.gov is the U.S. government's official web portal to all federal, state and local government web resources and services.